Flag for Indonesia Weather past 2 weeks in Makassar, South Sulawesi, Indonesia

Now
77 °F

Passing clouds.


Feels Like: 78 °F
Forecast: 78 / 85 °F
Wind: 3 mph from North

Location: Ujung Pandang / Hasanuddin

Current Time: Dec 28, 2014 at 5:36:13 AM

Latest Report: Dec 28, 2014 at 5:00 AM


Visibility: 5 mi

Pressure: 29.77 "Hg

Humidity: 94%

Dew point: 75 °F

Location of MakassarLocation

Historic Weather in Makassar — Graph

°F

Makassar temperature yesterday

Maximum temperature yesterday: 91 °F (at 11:30 AM)
Minimum temperature yesterday: 75 °F (at 5:00 AM)
Average temperature yesterday: 82 °F

Past Weeks' High & Low Weather Summary

 TemperatureHumidityPressure
High93 °F (Dec 13, 12:30 PM)100% (Dec 14, 2:00 AM)29.92 "Hg (Dec 14, 2:00 AM)
Low75 °F (Dec 16, 5:00 AM)53% (Dec 13, 1:30 PM)29.68 "Hg (Dec 21, 4:30 PM)
Average82 °F85%29.80 "Hg
* Reported Dec 13 4:00 AM — Dec 28 4:00 AM, Makassar, Weather by CustomWeather, © 2014

Note: Actual official high and low records may vary slightly from our data, if they occured in-between our weather recording intervals... More about our weather records

Advertising

Makassar weather history for previous 24 hours

 ConditionsComfort  
Time TempWeatherWind HumidityBarometerVisibility
4:00 AM
Dec 28
77 °FPassing clouds.5 mph100%29.77 "Hg5 mi
3:30 AM77 °FPassing clouds.6 mph100%29.77 "Hg5 mi
3:00 AM77 °FPassing clouds.2 mph94%29.74 "Hg5 mi
2:30 AM77 °FPassing clouds.5 mph94%29.77 "Hg5 mi
2:00 AM77 °FPassing clouds.3 mph94%29.77 "Hg5 mi
1:30 AM77 °FPassing clouds.3 mph94%29.77 "Hg5 mi
1:00 AM77 °FPassing clouds.3 mph94%29.77 "Hg5 mi
12:30 AM77 °FPassing clouds.2 mph94%29.80 "Hg5 mi
12:00 AM77 °FPassing clouds.1 mph100%29.80 "Hg4 mi
11:30 PM
Dec 27
77 °FPassing clouds.3 mph94%29.80 "Hg4 mi
11:00 PM77 °FPassing clouds.5 mph100%29.80 "Hg4 mi
10:30 PM77 °FThunderstorms. Passing clouds.3 mph100%29.83 "Hg4 mi
10:00 PM77 °FThunderstorms. Passing clouds.6 mph94%29.83 "Hg3 mi
9:30 PM77 °FThunderstorms. Passing clouds.5 mph94%29.83 "Hg1 mi
9:00 PM77 °FStrong thunderstorms. Passing clouds.7 mph94%29.83 "Hg1 mi
8:30 PM77 °FThunderstorms. Passing clouds.3 mph100%29.83 "Hg2 mi
8:00 PM77 °FThunderstorms. Passing clouds.1 mph94%29.83 "Hg3 mi
7:30 PM77 °FStrong thunderstorms. Passing clouds.12 mph94%29.80 "Hg1 mi
7:00 PM77 °FStrong thunderstorms. Passing clouds.14 mph100%29.80 "Hg1 mi
6:30 PM82 °FStrong thunderstorms. Passing clouds.12 mph89%29.77 "Hg1 mi
6:00 PM86 °FScattered clouds.3 mph75%29.74 "Hg5 mi
5:30 PM86 °FScattered clouds.5 mph75%29.74 "Hg5 mi
5:00 PM86 °FScattered clouds.3 mph75%29.71 "Hg5 mi
4:30 PM86 °FScattered clouds.6 mph70%29.71 "Hg5 mi
4:00 PM88 °FScattered clouds.6 mph66%29.71 "Hg5 mi
3:30 PM88 °FPassing clouds.8 mph66%29.71 "Hg6 mi
3:00 PM90 °FPassing clouds.6 mph63%29.71 "Hg6 mi
2:30 PM88 °FPassing clouds.7 mph66%29.71 "Hg6 mi
2:00 PM90 °FPassing clouds.8 mph63%29.74 "Hg6 mi
1:30 PM90 °FScattered clouds.7 mph63%29.74 "Hg6 mi
1:00 PM90 °FScattered clouds.8 mph63%29.74 "HgN/A
12:30 PM91 °FScattered clouds.7 mph63%29.74 "HgN/A
12:00 PM91 °FScattered clouds.6 mph59%29.77 "HgN/A
11:30 AM91 °FPassing clouds.1 mph59%29.77 "HgN/A
11:00 AM88 °FPassing clouds.3 mph66%29.77 "HgN/A
10:30 AM88 °FPassing clouds.3 mph66%29.77 "HgN/A
10:00 AM90 °FPassing clouds.2 mph55%29.77 "HgN/A
9:30 AM88 °FPassing clouds.3 mph62%29.80 "HgN/A
9:00 AM86 °FPassing clouds.2 mph70%29.80 "HgN/A
8:30 AM84 °FPassing clouds.5 mph74%29.80 "HgN/A
8:00 AM81 °FPassing clouds.5 mph84%29.80 "HgN/A
7:30 AM81 °FPassing clouds.3 mph84%29.80 "HgN/A
7:00 AM77 °FPassing clouds.5 mph94%29.77 "HgN/A
6:30 AM75 °FScattered clouds.5 mph100%29.77 "HgN/A
6:00 AM75 °FLight rain. Partly sunny.6 mph100%29.77 "Hg4 mi
5:30 AM75 °FLight rain. Passing clouds.7 mph100%29.77 "Hg4 mi
5:00 AM75 °FLight rain. Passing clouds.7 mph100%29.77 "Hg4 mi
Weather by CustomWeather, © 2014

See weather overviewHow to use our weather pages